Regional Weather Roundup
Issued by NWS

Home | Current Version | Previous Version | Graphics & Text | Print | Product List | Glossary On
Versions: 1 2 3 4 5 6 7 8 9 10 11 12 13 14 15 16 17 18 19 20 21 22 23 24 25 26 27 28 29 30 31 32 33 34 35 36 37 38 39 40 41 42 43 44 45 46 47 48 49 50
000
ASUS45 KBOI 230710
RWRID
WEATHER ROUNDUP FOR IDAHO
NATIONAL WEATHER SERVICE BOISE ID
100 AM MDT WED JUL 23 2014

NOTE: "FAIR" INDICATES FEW OR NO CLOUDS BELOW 12000 FEET
WITH NO SIGNIFICANT WEATHER AND/OR OBSTRUCTIONS TO VISIBILITY

IDZ012-014-230800-
SOUTHWEST IDAHO


CITY           SKY/WX    TMP DP  RH WIND       PRES   REMARKS
BOISE          MOCLDY    75  52  44 N10       30.00S
CALDWELL       MOCLDY    73  48  40 NW23      30.02S
MOUNTAIN HOME  PTCLDY    75  51  42 N14       29.98S
$$

IDZ016-017-230800-
SOUTHCENTRAL IDAHO


CITY           SKY/WX    TMP DP  RH WIND       PRES   REMARKS
BURLEY         CLEAR     62  49  62 CALM      30.02S
JEROME         CLEAR     69  52  54 SE8       30.03R
TWIN FALLS     CLEAR     69  48  47 S14       30.04R
$$

IDZ019>023-230800-
SOUTHEAST IDAHO


CITY           SKY/WX    TMP DP  RH WIND       PRES   REMARKS
IDAHO FALLS    PTCLDY    57  51  80 N5        30.13F
POCATELLO      CLEAR     65  43  44 SE6       30.08F
REXBURG        PTCLDY    61  51  70 NE6       30.15F
$$

IDZ006-010-011-018-031-032-230800-
CENTRAL IDAHO MOUNTAINS


CITY           SKY/WX    TMP DP  RH WIND       PRES   REMARKS
MCCALL         CLOUDY    70  38  31 CALM      30.21R
HAILEY         CLEAR     66  45  45 NW5       30.15S
STANLEY          N/A     59  43  55 NE6       30.24R
SALMON         PTCLDY    63  46  55 CALM      30.08R
CHALLIS        PTCLDY    66  43  43 CALM      30.12F
$$

IDZ002-004-006-007-026-230800-
NORTHERN IDAHO


CITY           SKY/WX    TMP DP  RH WIND       PRES   REMARKS
LEWISTON       LGT RAIN  68  60  75 W8        30.12R
LOWELL           N/A     73  57  57 CALM      30.06R
COEUR D`ALENE  CLOUDY    64  57  77 E8        30.12R
MULLAN PASS    CLOUDY    52  47  83 N8        30.30S
$$



USA.gov is the U.S. government's official web portal to all federal, state and local government web resources and services.